Погода в Красноусольском

Россия / Республика Башкортостан     53°53′36″N   56°28′07″E
темп.,
°C
ветер,
м/с
пор.,
м/с
влажн.,
%
обл.,
%
осадки,
мм/ч
давл.,
гПа
погр.,
м
20 апреля, вт
вт2023:00+1вюв511430 0.0 1031563
02:00−1вюв37450 0.0 1033236
05:00−2всв23470 0.0 103472
08:000в36360 0.0 1034643
11:00+5вюв34270 0.0 10341279
14:00+8юв23240 0.0 10321646
17:00+10вюв12240 0.0 10311743
20:00+6юв11390 0.0 103110
21 апреля, ср
ср2123:00+3юв22490 0.0 103210
02:00+1юв11520 0.0 103210
05:000ююв22553 0.0 103411
08:00+3ююв1145100 0.0 1034134
11:00+9ююв2330100 0.0 10321003
14:00+12ю3526100 0.0 10311460
17:00+13ююв452895 0.0 10291635
20:00+9ююв3447100 0.0 103081
22 апреля, чт
чт2223:00+8ююв3949100 0.0 1030352
02:00+7ююв41145100 0.0 1031493
05:00+6юв41158100 0.1 1032574
08:00+7ююв41150100 0.0 1031758
11:00+9ю61139100 0.0 10321176
14:00+10ю71038100 0.0 10321394
17:00+10ю51141100 0.1 10311794
20:00+9ю41047100 0.0 1031604
23 апреля, пт
пт2323:00+6ю51078100 0.1 1032919
02:00+5юв3989100 1.8 1030713
05:00+5ююв3892100 2.7 10301012
08:00+5ююв3796100 0.9 1030773
11:00+7ююв248179 1.3 1030547
14:00+13ю2650100 0.0 10271678
17:00+12ююв5656100 0.0 1026909
20:00+11вюв2263100 0.0 102513
24 апреля, сб
сб2423:00+8ююв4976100 0.3 1025515
02:00+7юв3688100 2.1 1024633
05:00+6вюв3691100 3.4 1022974
08:00+6вюв4990100 0.6 1020829
11:00+6юв4988100 1.9 1018660
14:00+9вюв5873100 0.1 10161037
17:00+10в4968100 0.8 10141394
20:00+9св487299 0.0 1011189